Location: Kimberly
(42.5380°N, 114.3640°W)
Time: 11:28:58
(UTC-06:00)

X-37B - Pass Details

Date: 10 August 2021
Orbit: 381 x 393 km, 45.0° (Epoch: 29 August)

Event Time Altitude Azimuth Distance (km) Brightness Sun altitude
Exits shadow 04:32:06 51° 340° (NNW) 484 1.1 -20.2°
Maximum altitude 04:32:24 54° 6° (N) 466 1.2 -20.2°
Drops below altitude 10° 04:35:29 10° 86° (E) 1,393 4.0 -19.8°
Sets 04:37:34 0° 91° (E) 2,245 5.1 -19.5°
